National Weather Service United States Department of Commerce

Observations from across/near northern Michigan

Marine Observations

Michigan Hourly Observations

 

Yesterday's high, low and precipitation reports from across northern Michigan

Northern Michigan Temperatures and Precipitation

 

Observation Text Products


000
SXUS83 KAPX 141526
OMRAPX

Marine Observations
National Weather Service Gaylord MI
1026 AM EST Wed Nov 14 2018

WIND DATA (KTS) WAVES
SITE DATE/TIME DIR SPEED GUST (FT) SITE NAME
--------------------------------------------------

Lake Superior/St Marys River

GRMM4 141440Z 320 10 14 Grand Marais
WFPM4 141440Z 60 6 9 Whitefish Point

Lake Huron

KDRM 141515Z 30 5 Drummond Island
KMCD 141515Z CALM Mackinac Island
KSLH 141515Z CALM Cheboygan Airport
CYGM4 141455Z CALM Cheboygan Marina
KPZQ 141515Z 20 5 Rogers City
PRIM4 141455Z 010 14 24 Presque Isle Light
KAPN 141521Z 310 5 Alpena Guard Base
SPTM4 141455Z 360 6 12 Sturgeon Point Light
KOSC 141515Z 290 8 Oscoda
TAWM4 141440Z 280 8 15 Tawas Point
GSLM4 141440Z 270 15 19 Gravelly Shoals
45003 141450Z 360 17 23 4.3 Northern Lake Huron Buoy
45008 141450Z 300 19 23 5.6 Central Lake Huron Buoy
KP58 141451Z 290 8 17 Port Hope

Lake Michigan

KISQ 141515Z 300 8 Manistique
NABM4 141440Z 330 7 8 Naubinway
KSJX 141517Z 300 5 St James
KPLN 141437Z CALM Pellston
KMGN 141515Z 30 6 Harbor Springs
KCVX 141515Z 320 5 Charlevoix
GTLM4 141440Z 340 10 13 Grand Traverse Light
KTVC 141453Z 270 8 Traverse City
KFKS 141515Z 10 3 Frankfort
BSBM4 141440Z 330 10 12 Big Sable Point
KLDM 141515Z 360 5 Ludington Airport


402
ASUS43 KDTX 141601
RWRMI
MICHIGAN HOURLY REGIONAL WEATHER ROUNDUP
NATIONAL WEATHER SERVICE DETROIT/PONTIAC MI
1100 AM EST WED NOV 14 2018

NOTE: "FAIR" INDICATES FEW OR NO CLOUDS BELOW 12,000 FEET WITH NO
SIGNIFICANT WEATHER AND/OR OBSTRUCTION TO VISIBILITY.

MIZ047>049-052>055-059>063-066>070-074>076-081>083-141700-
SOUTHEAST LOWER MICHIGAN

CITY SKY/WX TMP DP RH WIND PRES REMARKS
ADRIAN FAIR 29 19 66 VRB7 30.56R WCI 22
ALMA FAIR 27 11 51 NW8 30.59R WCI 19
ANN ARBOR FAIR 27 17 66 W8 30.56R WCI 19
BAD AXE PTSUNNY 28 16 59 W12G17 30.54R WCI 18
CARO FAIR 29 16 58 W7 30.56R WCI 22
DETROIT CITY FAIR 29 14 53 N8 30.57R WCI 21
DETROIT FAIR 30 15 53 NW6 30.57R WCI 24
FLINT FAIR 25 13 60 NW9 30.56S WCI 15
GROSSE ILE FAIR 29 17 59 N9 30.56S WCI 21
HILLSDALE FAIR 28 18 64 NE8 30.51F WCI 20
HOWELL FAIR 26 14 60 N5 30.56R WCI 20

CITY SKY/WX TMP DP RH WIND PRES REMARKS
JACKSON FAIR 27 17 66 NW6 30.55R WCI 20
LAMBERTVILLE FAIR 32 19 58 NW3 30.57R
LANSING FAIR 26 16 65 N8 30.57R WCI 18
LAPEER FAIR 27 15 60 NW7 30.55R WCI 19
MASON FAIR 28 16 61 N5 30.56R WCI 23
MONROE FAIR 29 18 64 NW7 30.56F WCI 22
MT. CLEMENS MOSUNNY 28 16 61 N7 30.56R WCI 21
PONTIAC FAIR 26 14 60 NW8 30.54R WCI 18
PORT HOPE N/A 28 16 60 W10 30.52R WCI 19
PORT HURON FAIR 27 12 54 NW7G17 30.55R WCI 19
TRI CITIES FAIR 29 13 51 NW9 30.58R WCI 20
MIDLAND FAIR 30 13 51 NW6 30.57S WCI 24
TROY FAIR 28 12 51 CALM 30.58R
SAGINAW HB FAIR 30 12 47 NW6 30.57R WCI 24
$$
MIZ043>046-050>051-056>058-064>065-071>073-077>080-141700-
SOUTHWEST LOWER MICHIGAN

CITY SKY/WX TMP DP RH WIND PRES REMARKS
BATTLE CREEK FAIR 30 18 60 N3 30.55R
BENTON HARBOR FAIR 33 22 63 N6 30.55F WCI 28
BIG RAPIDS CLOUDY 26 15 62 N5 30.55R WCI 20
COLDWATER FAIR 29 18 62 NE3 30.53F
FREMONT FAIR 28 15 56 N7 30.57R WCI 21
HOLLAND PTSUNNY 30 18 60 NE5 30.57R WCI 25
GRAND RAPIDS FAIR 29 16 58 N6 30.56R WCI 23
IONIA FAIR 28 13 54 N7 30.56R WCI 20
KALAMAZOO FAIR 30 18 60 VRB3 30.55R
LUDINGTON CLOUDY 28 17 63 N6 30.56S WCI 22
MARSHALL FAIR 32 17 54 CALM 30.54S
MOUNT PLEASANT FAIR 28 11 49 N5 30.56S WCI 22
MUSKEGON FAIR 30 15 53 N6 30.59R WCI 24
SOUTH HAVEN FAIR 32 21 64 N6 30.55F WCI 27
$$
MIZ016>042-141700-
NORTHERN LOWER MICHIGAN

CITY SKY/WX TMP DP RH WIND PRES REMARKS
ALPENA LGT SNOW 24 18 77 NW8 30.54S WCI 15
BEAVER ISLAND CLOUDY 25 15 66 W5 30.53S WCI 19
BELLAIRE CLOUDY 28 14 54 CALM 30.55R
CADILLAC FLURRIES 23 13 67 CALM 30.51R
CHARLEVOIX FLURRIES 27 17 65 NW6 30.56R WCI 21
FRANKFORT CLOUDY 27 15 62 W8 30.56S WCI 18
GAYLORD FLURRIES 21 17 84 CALM 30.49R
HARBOR SPRINGS CLOUDY 24 16 71 N3 30.53S
HOUGHTON LAKE PTSUNNY 24 16 71 NW8 30.53R WCI 15
MANISTEE CLOUDY 28 19 69 N5 30.56S WCI 23
OSCODA CLOUDY 28 16 60 W8 30.55R WCI 20
PELLSTON CLOUDY 21 16 81 CALM 30.55R
ROGERS CITY CLOUDY 22 14 69 N3 30.56R
TRAVERSE CITY FLURRIES 27 18 69 W8 30.55R WCI 19
$$
MIZ007>008-015-141700-
EASTERN UPPER MICHIGAN

CITY SKY/WX TMP DP RH WIND PRES REMARKS
KINROSS CLOUDY 19 8 62 CALM 30.53R
MACKINAC ISLAN CLOUDY 21 8 57 SE6 30.53R WCI 14
NEWBERRY CLOUDY 20 18 91 SW5 30.49S WCI 14
MUNISING N/A 22 11 62 VRB5 30.51S WCI 16
$$
MIZ004>006-011>014-085-141700-
CENTRAL UPPER MICHIGAN

CITY SKY/WX TMP DP RH WIND PRES REMARKS
MANISTIQUE CLOUDY 22 8 54 NW8 30.52F WCI 12
ESCANABA FAIR 23 10 57 NW5 30.54F WCI 17
MENOMINEE FAIR 26 14 60 CALM 30.56F
SAWYER-GWINN SUNNY 18 9 68 SW6 30.46F WCI 9
$$
MIZ001>003-009>011-084-141700-
WESTERN UPPER MICHIGAN

CITY SKY/WX TMP DP RH WIND PRES REMARKS
IRON MOUNTAIN FAIR 20 10 65 S5 30.47F WCI 13
HOUGHTON CLOUDY 21 9 59 VRB7 30.43F WCI 12
COPPER HARBOR N/A 23 9 55 SW6 30.47S WCI 16
IRONWOOD FAIR 20 9 62 S9 30.42F WCI 9
$$

ABBREVIATIONS USED IN REMARKS
TC - TEMPERATURE IN CELSIUS
WCI - WIND CHILL INDEX
HX - HEAT INDEX
VSB - VISIBILITY





000
ASUS63 KAPX 141450
RTPAPX


Eastern Upper/Northern Lower Michigan Temperature and Precip Summary
National Weather Service Gaylord MI
950 AM EST Wed Nov 14 2018

Yesterday`s High Temperature...12 hour Low ending 7 am EST
24 hour Precipitation/Snowfall ending 7 am EST
Snow Depth observed at 7 am EST

.BR APX 1114 ES DH00/TAIRZX/DH07/TAIRZP/PPDRZZ/SFDRZZ/SDIRZZ
:..................................................................
: MAX MIN 24 HR 24 HR SNOW
:ID LOCATION TEMP TEMP PRECIP SNOW DEPTH
:..................................................................
ANJ : Sault Ste Marie : M / M / 0.53 / 7.6 / 11
APN : Alpena : 28 / 19 / T / 0.1 / 2
HTL : Houghton Lake : 26 / 20 / T / 0.2 / 2
PLN : Pellston : 27 / 19 / M / /
TVC : Traverse City : 31 / 23 / M / /
GLR : Gaylord : 24 / 17 / M / /
.END

Cooperative Observations
Temperature/Precipitation/Snowfall values are for 24 hour period
ending at observation time. Snow Depth at obs time.

...................................................................
OBS MAX MIN SNOW SNOW
ID LOCATION TIME TEMP TEMP PCPN FALL DEPTH
...................................................................
ATLM4: Atlanta 1SW :DH0700/ 31 / 18 / 0.10 / 2.0 / 3.0
BEUM4: Beulah 7SSW :DH0800/ 25 / 21 / T / T / 3.0
CDLM4: Cadillac 9&10 News :DH0730/ 28 / 17 / 0.20 / 0.5 / 1.0
CHRM4: Charlevoix :DH0800/ 29 / 24 / 0.08 / 0.9 / 2.0
CHBM4: Cheboygan :DH0800/ 28 / 19 / 0.01 / T / 2.0
DTVM4: Detour Village :DH0800/ 24 / 13 / T / T / 6.0
EJNM4: East Jordan 2NW :DH0700/ 23 / 19 / 0.14 / 2.2 / 6.0
ETWM4: East Tawas :DH0830/ 34 / 22 / 0.00 / 0.0 / 0.0
ENGM4: Engadine MDOT :DH0700/ 25 / 12 / 0.00 / 0.0 / 2.0
FLAM4: Fife Lake 2WSW :DH0700/ 23 / 17 / T / T / 5.0
GAYM4: Gaylord :DH0800/ 22 / 17 / 0.07 / 1.3 / 5.0
APXM4: Gaylord 9SSW (NWS) :DH0700/ M / M / 0.12 / 3.2 / 5.0
GLAM4: Gladwin :DH0700/ 30 / 21 / 0.00 / 0.0 / 1.0
GLNM4: Glennie 2SE :DH0730/ 27 / 20 / 0.00 / 0.0 / 1.0
HALM4: Hale Loud Dam :DH0900/ 30 / 21 / 0.00 / 0.0 / 0.0
LKCM4: Lake City 2SE :DH0800/ 24 / 18 / 0.01 / 0.2 / 2.0
LEWM4: Lewiston 3W :DH0800/ 26 / 18 / 0.00 / 0.0 / 5.0
LUPM4: Lupton 1S :DH0800/ 28 / 18 / T / T / 1.0
MYOM4: Mio :DH0830/ 30 / 19 / 0.01 / T / 3.0
MRAM4: Moran :DH0800/ 25 / 12 / 0.06 / 0.2 / 4.0
OMSM4: Old Mission 3SSW :DH0800/ 25 / 22 / 0.00 / M / M
SSMM4: Sault Ste Marie :DH0800/ 23 / 12 / 0.49 / 7.0 /11.0
STIM4: St Ignace :DH0700/ 28 / 16 / T / T / 4.0
STAM4: Standish 4NE :DH0800/ 31 / 23 / 0.00 / 0.0 / 0.0
NWFM4: Traverse City 8NNW :DH0800/ 25 / 23 / T / T / 3.0
TCMM4: Traverse City Munson :DH0600/ 24 / 21 / T / T / 1.0
VANM4: Vanderbilt 11ENE :DH0800/ 23 / 17 / 0.16 / 3.6 / 6.0
WBRM4: West Branch 3SE :DH0800/ 28 / 21 / T / T / 1.0

These data are preliminary and have not undergone final quality
control by the National Centers for Environmental Information.
Therefore...these data are subject to revision. Final
and certified climate data can be accessed at www.ncdc.noaa.gov.

&&

The following are supplemental temperature and precipitation data.
This includes data which are received from non-National Weather
Service maintained observing systems...as well as reports from
public weather spotters. Data is only partially quality controlled
and is not suitable for official climatological records.

.BR APX 1114 ES DH00/TAIRZX/DH07/TAIRZP
:
:Automated Temperature Data--Yesterday High/12 hr Low Ending 7 am EST
:..................................................................
: MAX MIN
:ID LOCATION TEMP TEMP
:..................................................................
:
ERY : Newberry : 23 / 13
CIU : Kinross : 23 / 10
MCD : Mackinac Island : 26 / 17
DRM : Drummond Island : 26 / 16
SJX : Beaver Island : 28 / 20
SLH : Cheboygan : 28 / 19
PZQ : Rogers City : 28 / 20
CVX : Charlevoix : 31 / 23
MGN : Harbor Springs : 28 / 21
ACB : Bellaire : 29 / 24
FKS : Frankfort : 31 / 23
MBL : Manistee : 28 / 21
CAD : Cadillac : 26 / 19
Y31 : West Branch : 29 / 21
OSC : Oscoda : 30 / 22
LDM : Ludington : 32 / 22
RQB : Big Rapids : 29 / 21
MOP : Mount Pleasant : 32 / 23
IKW : Midland : 33 / 24
.END

U.S. Forest Serivce Remote Automated Weather Stations (RAWS)
Data is only partially quality controlled
Yesterday`s High/12 hour Low Temperature ending 7 am EST
Maximum Relative Humidity over past 12 hours
12/24 hour Precipitation ending 7 am EST
...................................................................
MAX MIN MAX 12 HR 24 HR
ID LOCATION TEMP TEMP RH PRECIP PRECIP
...................................................................
AGRM4: Alger RAWS : M / M / M / M / M
ATAM4: Atlanta RAWS : 26 / 19 / 83 / 0.00 / 0.00
BCYM4: Barton City RAWS : 29 / 20 / 85 / 0.00 / 0.00
GYGM4: Grayling RAWS : M / M / M / M / M
INDM4: Indian River RAWS : 26 / 19 / 72 / 0.00 / 0.00
MMOM4: Mio RAWS : 29 / 19 / 85 / 0.00 / 0.00
MTNM4: Manton RAWS : M / M / M / M / M
NMIM4: N Manitou Island : 29 / 22 / 64 / 0.00 / 0.00
RACM4: Raco RAWS : 25 / 14 / 88 / 0.00 / 0.00
REXM4: Rexton RAWS : 25 / 12 / 89 / 0.00 / 0.00
RSCM4: Roscommon RAWS : 28 / 20 / M / 0.00 / 0.00
RYDM4: Rudyard RAWS : 24 / 13 / 85 / 0.00 / 0.00
SBDM4: The Bear RAWS : 29 / 22 / 66 / 0.00 / 0.00
SCKM4: Silver Creek RAWS : 30 / 21 / 79 / 0.00 / 0.00
WLLM4: Wellston RAWS : 26 / 20 / 83 / 0.00 / 0.00


CoCoRaHS Precipitation Reports
Values are for the previous 24 hours ending around 7 am EST.
All reports have been recorded in inches.

SNOW SNOW WATER
STATION LOCATION PCPN FALL DEPTH EQUIV
MIAT06 : MANCELONA 0.5 ESE * : 0.22 / 6.4 / 9.0 / MM
MICX07 : EAST JORDAN 2.1 NNW * : 0.14 / 2.2 / 5.5 / MM
MICX04 : CHARLEVOIX 4.3 SSE * : 0.11 / 1.5 / MM / MM
MIPI01 : ROGERS CITY 0.2 WSW * : 0.03 / 0.3 / 4.0 / MM
MICF09 : GRAYLING 15.8 NE * : 0.03 / 0.3 / 2.5 / MM
MIMN06 : WELLSTON 3.9 WNW * : 0.03 / T / MM / MM
MIOD03 : LUZERNE 2.4 NE * : 0.02 / T / 4.0 / MM
MIMK01 : LAKE CITY 5.0 SSW * : 0.01 / 0.9 / MM / MM
MIMC04 : ST. IGNACE 0.5SE * : T / T / 4.0 / MM
MIGT21 : KINGSLEY 2.7 ENE * : T / 0.1 / 2.0 / MM
MIOG06 : WEST BRANCH 2.1 SSW * : T / MM / MM / MM
MIAP02 : OSSINEKE 1.0 NNE * : 0.00 / 0.0 / MM / MM
MIEM08 : PETOSKEY 1.7 SSW * : 0.00 / 0.0 / MM / MM

$$